"TOA5","MOW","CPU:UNC_MeetingWaters","DataHourly"
"TIMESTAMP","SondeTempC","SpCond","DOSat","DOmg","pH","Turb","BattVolt_Min"
"TS","","","","","","",""
"","Smp","Smp","Smp","Smp","Smp","Smp","Min"
"2002-02-01 00:00:00",14.75,0.31400001049,86.0,8.71000003815,7.0,2.0,12.5500001907
"2002-02-01 01:00:00",14.7700004578,0.317000001669,87.0,8.81000041962,7.0,1.60000002384,12.5399999619
"2002-02-01 02:00:00",14.779999733,0.317000001669,88.3000030518,8.93999958038,7.01000022888,2.29999995232,12.5200004578
"2002-02-01 03:00:00",14.6599998474,0.316000014544,89.0,9.02999973297,7.01999998093,2.29999995232,12.5100002289
"2002-02-01 04:00:00",14.6400003433,0.314999997616,89.8000030518,9.11999988556,7.03999996185,1.10000002384,12.5
"2002-02-01 05:00:00",14.7600002289,0.312999993563,89.8000030518,9.10000038147,7.03999996185,1.0,12.5
"2002-02-01 06:00:00",14.9399995804,0.314999997616,90.0999984741,9.09000015259,7.05000019073,0.699999988079,12.5100002289
"2002-02-01 07:00:00",15.0699996948,0.319999992847,90.9000015259,9.14000034332,7.07000017166,0.699999988079,12.5100002289
"2002-02-01 08:00:00",15.1599998474,0.326000005007,90.8000030518,9.10999965668,7.07000017166,1.5,12.5100002289
"2002-02-01 09:00:00",15.4099998474,0.324000000954,94.0,9.39000034332,7.09000015259,0.800000011921,12.5500001907
"2002-02-01 10:00:00",15.7299995422,0.319999992847,97.8000030518,9.69999980927,7.11000013351,0.800000011921,12.9799995422
"2002-02-01 11:00:00",16.25,0.317999988794,102.099998474,10.0100002289,7.21999979019,1.60000002384,13.1599998474
"2002-02-01 12:00:00",17.0300006866,0.316000014544,102.400001526,9.88000011444,7.23000001907,1.70000004768,13.1499996185
"2002-02-01 13:00:00",17.7399997711,0.314999997616,106.900001526,10.1599998474,7.23999977112,1.20000004768,13.1300001144
"2002-02-01 14:00:00",17.7299995422,0.31400001049,101.099998474,9.61999988556,7.28000020981,1.39999997616,12.8800001144
"2002-02-01 15:00:00",17.8799991608,0.31099998951,102.800003052,9.75,7.26999998093,1.89999997616,12.8800001144
"2002-02-01 16:00:00",17.8999996185,0.319000005722,96.1999969482,9.10999965668,7.23000001907,1.79999995232,12.7700004578
"2002-02-01 17:00:00",17.7900009155,0.344000011683,94.6999969482,9.0,7.17999982834,1.70000004768,12.7399997711
"2002-02-01 18:00:00",17.5100002289,0.363999992609,87.4000015259,8.35000038147,7.13999986649,1.29999995232,12.6999998093
"2002-02-01 19:00:00",17.2299995422,0.370999991894,85.6999969482,8.23999977112,7.07999992371,1.5,12.6700000763
"2002-02-01 20:00:00",16.8099994659,0.372000008821,82.0999984741,7.96000003815,7.05000019073,1.70000004768,12.6599998474
"2002-02-01 21:00:00",16.2900009155,0.377000004053,80.3000030518,7.86999988556,7.01999998093,1.70000004768,12.6400003433
"2002-02-01 22:00:00",15.529999733,0.391999989748,79.9000015259,7.94999980927,7.01000022888,2.70000004768,12.6000003815
"2002-02-01 23:00:00",14.9099998474,0.412999987602,81.8000030518,8.26000022888,7.0,1.70000004768,12.5799999237
"2002-02-02 00:00:00",14.2600002289,0.426999986172,83.1999969482,8.52000045776,7.0,1.0,12.5500001907
"2002-02-02 01:00:00",13.7299995422,0.428999990225,84.4000015259,8.73999977112,7.01000022888,0.899999976158,12.529999733
"2002-02-02 02:00:00",13.3100004196,0.414999991655,85.4000015259,8.93000030518,7.03000020981,0.699999988079,12.5100002289
"2002-02-02 03:00:00",12.8500003815,0.402000010014,86.9000015259,9.18000030518,7.03999996185,0.5,12.4799995422
"2002-02-02 04:00:00",12.6099996567,0.386999994516,90.0,9.55000019073,7.07000017166,1.0,12.4600000381
"2002-02-02 05:00:00",12.1999998093,0.368000000715,91.3000030518,9.77999973297,7.07999992371,0.40000000596,12.4399995804
"2002-02-02 06:00:00",11.8699998856,0.347999989986,92.6999969482,10.0100002289,7.09000015259,0.800000011921,12.4200000763
"2002-02-02 07:00:00",11.4099998474,0.331999987364,93.9000015259,10.25,7.11000013351,1.0,12.3900003433
"2002-02-02 08:00:00",10.8000001907,0.321000009775,95.1999969482,10.5399999619,7.11000013351,0.800000011921,12.3900003433
"2002-02-02 09:00:00",10.3299999237,0.31400001049,98.1999969482,10.9899997711,7.11999988556,0.800000011921,12.4399995804
"2002-02-02 10:00:00",10.1899995804,0.307000011206,101.099998474,11.3500003815,7.13999986649,1.0,13.5799999237
"2002-02-02 11:00:00",10.4600000381,0.301999986172,105.199996948,11.7299995422,7.17000007629,0.699999988079,13.5799999237
"2002-02-02 12:00:00",11.2100000381,0.300999999046,107.0,11.7399997711,7.19999980927,0.600000023842,13.5699996948
"2002-02-02 13:00:00",11.6899995804,0.300000011921,108.900001526,11.8100004196,7.23999977112,1.0,13.5699996948
"2002-02-02 14:00:00",11.8800001144,0.298999994993,109.300003052,11.8000001907,7.26999998093,0.600000023842,13.1400003433
"2002-02-02 15:00:00",11.8400001526,0.29699999094,109.199996948,11.8100004196,7.28000020981,0.5,13.5399999619
"2002-02-02 16:00:00",11.720000267,0.291999995708,106.300003052,11.5200004578,7.28000020981,0.600000023842,13.5
"2002-02-02 17:00:00",11.3500003815,0.289999991655,103.099998474,11.2700004578,7.26999998093,0.699999988079,12.7700004578
"2002-02-02 18:00:00",10.9099998474,0.287000000477,99.3000030518,10.9600000381,7.25,0.699999988079,12.6999998093
"2002-02-02 19:00:00",10.4099998474,0.298000007868,95.8000030518,10.6999998093,7.21999979019,0.699999988079,12.6499996185
"2002-02-02 20:00:00",10.0399999619,0.289999991655,94.6999969482,10.6700000763,7.17999982834,0.899999976158,12.6099996567
"2002-02-02 21:00:00",9.57999992371,0.294999986887,93.5999984741,10.6599998474,7.15000009537,0.800000011921,12.5799999237
"2002-02-02 22:00:00",9.17000007629,0.29699999094,93.1999969482,10.7299995422,7.11000013351,1.20000004768,12.5500001907
"2002-02-02 23:00:00",8.82999992371,0.300999999046,92.0,10.6599998474,7.09000015259,1.0,12.529999733
"2002-02-03 00:00:00",8.68000030518,0.301999986172,91.6999969482,10.6700000763,7.09000015259,0.699999988079,12.5100002289
"2002-02-03 01:00:00",8.47999954224,0.300999999046,93.3000030518,10.9200000763,7.07999992371,0.600000023842,12.4899997711
"2002-02-03 02:00:00",8.18000030518,0.300000011921,93.5999984741,11.029999733,7.07999992371,1.5,12.470000267
"2002-02-03 03:00:00",7.94000005722,0.303999990225,95.0999984741,11.2700004578,7.09000015259,0.600000023842,12.4399995804
"2002-02-03 04:00:00",7.71999979019,0.303000003099,96.0999984741,11.4499998093,7.09999990463,0.40000000596,12.3999996185
"2002-02-03 05:00:00",7.63999986649,0.300999999046,96.0,11.4600000381,7.11000013351,0.300000011921,12.3699998856
"2002-02-03 06:00:00",7.57000017166,0.303999990225,96.0,11.4899997711,7.11999988556,0.40000000596,12.3500003815
"2002-02-03 07:00:00",7.46999979019,0.307000011206,96.0999984741,11.5100002289,7.11999988556,0.40000000596,12.3299999237
"2002-02-03 08:00:00",7.38999986649,0.316000014544,96.1999969482,11.5600004196,7.11999988556,0.40000000596,12.3299999237
"2002-02-03 09:00:00",7.34999990463,0.331999987364,99.0,11.8999996185,7.11999988556,0.20000000298,12.7100000381
"2002-02-03 10:00:00",7.55000019073,0.342999994755,104.599998474,12.5100002289,7.13999986649,0.0,13.0600004196
"2002-02-03 11:00:00",7.90999984741,0.344000011683,107.099998474,12.7100000381,7.15999984741,0.0,13.1400003433
"2002-02-03 12:00:00",8.31999969482,0.340000003576,110.199996948,12.9300003052,7.19000005722,-0.10000000149,13.220000267
"2002-02-03 13:00:00",8.52000045776,0.331999987364,111.800003052,13.0600004196,7.21999979019,0.10000000149,13.0399999619
"2002-02-03 14:00:00",8.81000041962,0.321999996901,111.099998474,12.8900003433,7.23999977112,0.10000000149,12.9300003052
"2002-02-03 15:00:00",9.03999996185,0.31400001049,109.300003052,12.6099996567,7.26000022888,0.10000000149,12.8500003815
"2002-02-03 16:00:00",9.10000038147,0.308999985456,107.699996948,12.4099998474,7.28000020981,0.20000000298,12.7700004578
"2002-02-03 17:00:00",8.93000030518,0.305000007153,105.300003052,12.1800003052,7.25,0.10000000149,12.6999998093
"2002-02-03 18:00:00",8.89000034332,0.303999990225,102.0,11.8100004196,7.23999977112,0.300000011921,12.6800003052
"2002-02-03 19:00:00",8.81999969482,0.305000007153,98.6999969482,11.4499998093,7.21999979019,0.20000000298,12.6499996185
"2002-02-03 20:00:00",8.78999996185,0.303000003099,97.0,11.25,7.19999980927,0.899999976158,12.6300001144
"2002-02-03 21:00:00",8.65999984741,0.303999990225,96.1999969482,11.1999998093,7.19000005722,0.300000011921,12.6099996567
"2002-02-03 22:00:00",8.72999954224,0.305000007153,95.4000015259,11.0900001526,7.17000007629,0.10000000149,12.5900001526
"2002-02-03 23:00:00",8.59000015259,0.303999990225,95.9000015259,11.1800003052,7.15999984741,0.10000000149,12.5799999237
"2002-02-04 00:00:00",8.43000030518,0.303999990225,95.3000030518,11.1599998474,7.15999984741,0.0,12.5399999619
"2002-02-04 01:00:00",8.25,0.303999990225,95.5,11.2399997711,7.15000009537,-0.20000000298,12.5
"2002-02-04 02:00:00",8.01000022888,0.303999990225,95.1999969482,11.2600002289,7.15000009537,-0.10000000149,12.4600000381
"2002-02-04 03:00:00",7.82999992371,0.303000003099,95.5,11.3500003815,7.15000009537,0.0,12.3999996185
"2002-02-04 04:00:00",7.53000020981,0.300999999046,95.6999969482,11.4600000381,7.15000009537,-0.10000000149,12.3699998856
"2002-02-04 05:00:00",7.26999998093,0.298999994993,95.9000015259,11.5500001907,7.15000009537,-0.10000000149,12.3500003815
"2002-02-04 06:00:00",7.15000009537,0.29699999094,96.0999984741,11.6099996567,7.15000009537,-0.10000000149,12.3299999237
"2002-02-04 07:00:00",6.92999982834,0.293999999762,96.5,11.720000267,7.15000009537,-0.10000000149,12.3299999237
"2002-02-04 08:00:00",6.73999977112,0.291999995708,97.0,11.8500003815,7.15000009537,0.0,12.3599996567
"2002-02-04 09:00:00",6.80000019073,0.291999995708,99.6999969482,12.1599998474,7.15000009537,-0.10000000149,12.5200004578
"2002-02-04 10:00:00",7.11999988556,0.289999991655,103.199996948,12.4799995422,7.17000007629,-0.10000000149,13.6400003433
"2002-02-04 11:00:00",7.92000007629,0.28900000453,108.0,12.8100004196,7.19000005722,0.10000000149,13.6099996567
"2002-02-04 12:00:00",8.35999965668,0.287000000477,109.400001526,12.8299999237,7.23000001907,0.20000000298,13.5699996948
"2002-02-04 13:00:00",8.97000026703,0.284000009298,111.599998474,12.8999996185,7.23000001907,0.20000000298,13.6000003815
"2002-02-04 14:00:00",8.96000003815,0.28900000453,109.199996948,12.6300001144,7.28000020981,0.600000023842,12.8299999237
"2002-02-04 15:00:00",8.89000034332,0.28900000453,110.199996948,12.7600002289,7.30999994278,0.600000023842,13.5900001526
"2002-02-04 16:00:00",8.59000015259,0.291999995708,109.400001526,12.7600002289,7.34999990463,0.300000011921,13.6000003815
"2002-02-04 17:00:00",7.84000015259,0.303999990225,105.400001526,12.5200004578,7.34000015259,0.800000011921,12.75
"2002-02-04 18:00:00",7.48000001907,0.307999998331,99.8000030518,11.9600000381,7.32000017166,0.899999976158,12.6800003052
"2002-02-04 19:00:00",6.86999988556,0.307000011206,95.9000015259,11.6700000763,7.28000020981,1.10000002384,12.6400003433
"2002-02-04 20:00:00",6.28000020981,0.307000011206,94.0,11.6099996567,7.23000001907,1.10000002384,12.6099996567
"2002-02-04 21:00:00",5.96000003815,0.307999998331,93.4000015259,11.6300001144,7.19000005722,1.60000002384,12.5699996948
"2002-02-04 22:00:00",5.78000020981,0.307999998331,93.3000030518,11.6700000763,7.17000007629,0.899999976158,12.5500001907
"2002-02-04 23:00:00",5.59000015259,0.305999994278,93.8000030518,11.779999733,7.15000009537,0.5,12.529999733
"2002-02-05 00:00:00",5.34000015259,0.301999986172,94.3000030518,11.9200000763,7.13999986649,1.0,12.5200004578
"2002-02-05 01:00:00",5.15000009537,0.298999994993,95.3000030518,12.1199998856,7.13000011444,0.600000023842,12.4899997711
"2002-02-05 02:00:00",4.98000001907,0.294999986887,96.0999984741,12.2600002289,7.13000011444,0.10000000149,12.470000267
"2002-02-05 03:00:00",4.76000022888,0.291000008583,97.0999984741,12.4600000381,7.13000011444,0.0,12.4399995804
"2002-02-05 04:00:00",4.53000020981,0.289999991655,97.9000015259,12.6499996185,7.13000011444,0.10000000149,12.4099998474
"2002-02-05 05:00:00",4.32000017166,0.287999987602,98.4000015259,12.779999733,7.11999988556,-0.10000000149,12.3800001144
"2002-02-05 06:00:00",4.11000013351,0.286000013351,98.9000015259,12.9200000763,7.13000011444,-0.20000000298,12.3299999237
"2002-02-05 07:00:00",3.91000008583,0.284999996424,99.1999969482,13.029999733,7.13000011444,-0.10000000149,12.2899999619
"2002-02-05 08:00:00",3.79999995232,0.284999996424,100.199996948,13.1899995804,7.13000011444,-0.20000000298,12.2600002289
"2002-02-05 09:00:00",3.77999997139,0.284999996424,102.5,13.5,7.15000009537,0.0,12.6000003815
"2002-02-05 10:00:00",3.99000000954,0.284000009298,105.599998474,13.8299999237,7.17000007629,0.0,13.8299999237
"2002-02-05 11:00:00",4.48999977112,0.282999992371,109.0,14.1000003815,7.17999982834,0.10000000149,13.8000001907
"2002-02-05 12:00:00",5.28999996185,0.284000009298,111.400001526,14.1099996567,7.19999980927,0.10000000149,13.7700004578
"2002-02-05 13:00:00",6.21999979019,0.28900000453,113.099998474,13.9799995422,7.21999979019,0.0,13.75
"2002-02-05 14:00:00",6.76000022888,0.291999995708,111.800003052,13.6400003433,7.23000001907,0.10000000149,13.7299995422
"2002-02-05 15:00:00",6.94000005722,0.291999995708,111.0,13.4799995422,7.23999977112,-0.10000000149,13.6800003052
"2002-02-05 16:00:00",7.01999998093,0.28900000453,109.699996948,13.3000001907,7.32999992371,-0.10000000149,13.6199998856
"2002-02-05 17:00:00",6.84999990463,0.287000000477,106.699996948,12.9899997711,7.30000019073,0.20000000298,12.8000001907
"2002-02-05 18:00:00",6.57999992371,0.284999996424,102.900001526,12.6099996567,7.28000020981,0.20000000298,12.7299995422
"2002-02-05 19:00:00",6.30000019073,0.284000009298,99.9000015259,12.3400001526,7.23000001907,0.40000000596,12.6700000763
"2002-02-05 20:00:00",6.09999990463,0.284000009298,97.6999969482,12.1199998856,7.19000005722,2.70000004768,12.6400003433
"2002-02-05 21:00:00",6.0,0.284000009298,95.6999969482,11.8999996185,7.15999984741,11.1999998093,12.6099996567
"2002-02-05 22:00:00",5.90000009537,0.287000000477,94.3000030518,11.7600002289,7.13000011444,20.7999992371,12.5900001526
"2002-02-05 23:00:00",5.80999994278,0.287999987602,93.5,11.6800003052,7.11000013351,23.7000007629,12.5699996948
"2002-02-06 00:00:00",5.73999977112,0.287999987602,93.0999984741,11.6599998474,7.09000015259,20.0,12.5500001907
"2002-02-06 01:00:00",5.63999986649,0.28900000453,92.8000030518,11.6499996185,7.07000017166,14.6000003815,12.5200004578
"2002-02-06 02:00:00",5.40000009537,0.28900000453,92.9000015259,11.7299995422,7.05999994278,10.3000001907,12.5
"2002-02-06 03:00:00",5.32999992371,0.28900000453,93.4000015259,11.8199996948,7.05999994278,7.09999990463,12.4799995422
"2002-02-06 04:00:00",5.30999994278,0.28900000453,94.5,11.9600000381,7.05000019073,4.59999990463,12.4399995804
"2002-02-06 05:00:00",5.26999998093,0.28900000453,95.3000030518,12.0699996948,7.05000019073,3.20000004768,12.3999996185
"2002-02-06 06:00:00",5.21999979019,0.287999987602,96.3000030518,12.220000267,7.05999994278,2.40000009537,12.3599996567
"2002-02-06 07:00:00",5.17000007629,0.287000000477,96.8000030518,12.3000001907,7.07000017166,1.79999995232,12.3299999237
"2002-02-06 08:00:00",5.19999980927,0.286000013351,97.1999969482,12.3400001526,7.07000017166,1.39999997616,12.3199996948
"2002-02-06 09:00:00",5.32000017166,0.286000013351,98.5999984741,12.4799995422,7.07999992371,1.10000002384,12.6899995804
"2002-02-06 10:00:00",5.63000011444,0.286000013351,102.300003052,12.8400001526,7.09000015259,0.699999988079,12.9499998093
"2002-02-06 11:00:00",6.11000013351,0.284999996424,106.300003052,13.1899995804,7.09999990463,0.600000023842,13.2600002289
"2002-02-06 12:00:00",6.63999986649,0.282999992371,108.800003052,13.3199996948,7.13000011444,0.600000023842,13.6599998474
"2002-02-06 13:00:00",7.11000013351,0.280999988317,109.400001526,13.2299995422,7.15999984741,0.40000000596,12.9399995804
"2002-02-06 14:00:00",7.42000007629,0.280999988317,108.199996948,13.0,7.19000005722,0.5,12.8800001144
"2002-02-06 15:00:00",7.55999994278,0.282000005245,106.800003052,12.779999733,7.19999980927,0.600000023842,12.8100004196
"2002-02-06 16:00:00",7.61999988556,0.284000009298,104.199996948,12.4499998093,7.21000003815,0.899999976158,12.7299995422
"2002-02-06 17:00:00",7.59000015259,0.287999987602,98.0999984741,11.7299995422,7.19999980927,17.7999992371,12.6899995804
"2002-02-06 18:00:00",7.63999986649,0.294999986887,94.3000030518,11.2600002289,7.13000011444,67.1999969482,12.6599998474
"2002-02-06 19:00:00",8.40999984741,0.286000013351,91.4000015259,10.7100000381,7.05999994278,85.9000015259,12.6400003433
"2002-02-06 20:00:00",9.30000019073,0.178000003099,95.3000030518,10.9399995804,7.21000003815,159.5,12.6099996567
"2002-02-06 21:00:00",9.10999965668,0.109999999404,96.9000015259,11.1700000763,7.15000009537,113.800003052,12.5900001526
"2002-02-06 22:00:00",8.65999984741,0.0909999981523,99.4000015259,11.5799999237,7.0,78.3000030518,12.5799999237
"2002-02-06 23:00:00",8.06999969482,0.0750000029802,102.300003052,12.0900001526,6.88999986649,98.0999984741,12.5600004196
"2002-02-07 00:00:00",7.65000009537,0.0630000010133,103.099998474,12.3199996948,6.78999996185,102.699996948,12.5200004578
"2002-02-07 01:00:00",7.07000017166,0.0610000006855,104.5,12.6700000763,6.75,114.699996948,12.4799995422
"2002-02-07 02:00:00",6.46999979019,0.0670000016689,104.099998474,12.8000001907,6.67999982834,91.6999969482,12.4399995804
"2002-02-07 03:00:00",6.53000020981,0.0579999983311,104.699996948,12.8599996567,6.67999982834,107.400001526,12.3999996185
"2002-02-07 04:00:00",6.32999992371,0.0599999986589,104.599998474,12.9099998474,6.65999984741,99.5,12.3699998856
"2002-02-07 05:00:00",6.38000011444,0.0610000006855,104.400001526,12.8699998856,6.65000009537,95.9000015259,12.3599996567
"2002-02-07 06:00:00",6.42999982834,0.0619999989867,104.199996948,12.8199996948,6.65000009537,82.6999969482,12.3500003815
"2002-02-07 07:00:00",6.59999990463,0.0920000001788,103.0,12.6300001144,6.59999990463,57.7000007629,12.3500003815
"2002-02-07 08:00:00",6.92000007629,0.107000000775,101.199996948,12.3100004196,6.61999988556,53.2000007629,12.3599996567
"2002-02-07 09:00:00",7.21000003815,0.116999998689,100.5,12.1300001144,6.65999984741,46.0,12.4799995422
"2002-02-07 10:00:00",7.53000020981,0.134000003338,100.699996948,12.0600004196,6.69000005722,41.0999984741,12.8199996948
"2002-02-07 11:00:00",7.92000007629,0.150999993086,101.300003052,12.0200004578,6.71999979019,42.2999992371,12.9600000381
"2002-02-07 12:00:00",8.25,0.165000006557,101.199996948,11.9099998474,6.76000022888,40.9000015259,12.8800001144
"2002-02-07 13:00:00",8.48999977112,0.177000001073,99.5999984741,11.6499996185,6.80000019073,43.5999984741,12.8500003815
"2002-02-07 14:00:00",8.76000022888,0.189999997616,98.9000015259,11.4899997711,6.82000017166,60.5999984741,12.8100004196
"2002-02-07 15:00:00",9.0,0.201000005007,97.8000030518,11.3000001907,6.84000015259,73.0,12.9099998474
"2002-02-07 16:00:00",9.18000030518,0.208000004292,96.6999969482,11.1300001144,6.84000015259,71.5,12.7399997711
"2002-02-07 17:00:00",9.27999973297,0.212999999523,94.5999984741,10.8500003815,6.84999990463,74.4000015259,12.6800003052
"2002-02-07 18:00:00",9.35999965668,0.217999994755,93.3000030518,10.6899995804,6.84999990463,83.4000015259,12.6400003433
"2002-02-07 19:00:00",9.39999961853,0.219999998808,92.1999969482,10.5500001907,6.86000013351,82.8000030518,12.6099996567
"2002-02-07 20:00:00",9.36999988556,0.221000000834,91.5,10.4799995422,6.84999990463,85.8000030518,12.5799999237
"2002-02-07 21:00:00",9.40999984741,0.218999996781,93.0999984741,10.6499996185,6.82999992371,96.3000030518,12.5600004196
"2002-02-07 22:00:00",9.57999992371,0.224000006914,93.0999984741,10.6099996567,6.84000015259,138.300003052,12.5399999619
"2002-02-07 23:00:00",9.92000007629,0.197999998927,93.8000030518,10.6000003815,6.88000011444,171.600006104,12.5100002289
"2002-02-08 00:00:00",9.85999965668,0.189999997616,92.4000015259,10.4600000381,6.86000013351,100.5,12.4600000381
"2002-02-08 01:00:00",9.68999958038,0.188999995589,90.3000030518,10.2600002289,6.82999992371,79.0,12.4099998474
"2002-02-08 02:00:00",9.39999961853,0.187000006437,88.8000030518,10.1599998474,6.78999996185,66.0999984741,12.3900003433
"2002-02-08 03:00:00",8.93000030518,0.204999998212,92.5,10.7100000381,6.75,54.4000015259,12.3500003815
"2002-02-08 04:00:00",8.64000034332,0.21099999547,93.1999969482,10.8699998856,6.76999998093,45.2999992371,12.3500003815
"2002-02-08 05:00:00",8.30000019073,0.216000005603,93.4000015259,10.970000267,6.78999996185,34.7000007629,12.3299999237
"2002-02-08 06:00:00",8.05000019073,0.222000002861,93.8000030518,11.0900001526,6.80000019073,26.7999992371,12.3100004196
"2002-02-08 07:00:00",7.80999994278,0.226999998093,94.0,11.1700000763,6.80999994278,25.6000003815,12.3100004196
"2002-02-08 08:00:00",7.61999988556,0.232999995351,94.6999969482,11.3100004196,6.82999992371,18.2999992371,12.3000001907
"2002-02-08 09:00:00",7.59000015259,0.236000001431,97.0,11.5900001526,6.84999990463,15.6999998093,12.4399995804
"2002-02-08 10:00:00",7.96000003815,0.243000000715,99.9000015259,11.8400001526,6.86999988556,15.0,13.6400003433
"2002-02-08 11:00:00",8.64999961853,0.24699999392,103.0,12.0,6.90000009537,13.0,13.5900001526
"2002-02-08 12:00:00",9.43999958038,0.252000004053,104.699996948,11.9600000381,6.94000005722,12.0,13.5
"2002-02-08 13:00:00",10.3299999237,0.254999995232,106.099998474,11.8800001144,6.96000003815,11.5,13.4600000381
"2002-02-08 14:00:00",10.8999996185,0.256999999285,104.599998474,11.5600004196,6.98000001907,9.69999980927,13.4300003052
"2002-02-08 15:00:00",11.25,0.259000003338,105.400001526,11.5500001907,7.03999996185,10.8000001907,13.3699998856
"2002-02-08 16:00:00",11.4799995422,0.263999998569,102.099998474,11.1300001144,7.03000020981,14.3000001907,13.3199996948
"2002-02-08 17:00:00",11.3000001907,0.280999988317,99.0,10.8299999237,7.0,16.8999996185,12.8299999237
"2002-02-08 18:00:00",10.970000267,0.298999994993,95.4000015259,10.5200004578,6.96999979019,14.1999998093,12.7600002289
"2002-02-08 19:00:00",10.6700000763,0.308999985456,92.1999969482,10.2399997711,6.94000005722,11.8000001907,12.6999998093
"2002-02-08 20:00:00",10.3100004196,0.316000014544,90.0999984741,10.0799999237,6.92000007629,10.3000001907,12.6599998474
"2002-02-08 21:00:00",9.96000003815,0.319000005722,89.8000030518,10.1300001144,6.90000009537,8.89999961853,12.6199998856
"2002-02-08 22:00:00",9.68999958038,0.317000001669,87.4000015259,9.92000007629,6.88999986649,6.80000019073,12.6000003815
"2002-02-08 23:00:00",9.30000019073,0.31099998951,87.6999969482,10.0600004196,6.88000011444,5.69999980927,12.5699996948
"2002-02-09 00:00:00",9.0,0.307000011206,89.5,10.3299999237,6.86999988556,6.69999980927,12.5500001907
"2002-02-09 01:00:00",8.64999961853,0.300999999046,89.6999969482,10.4499998093,6.88000011444,6.19999980927,12.529999733
"2002-02-09 02:00:00",8.36999988556,0.294999986887,91.1999969482,10.6999998093,6.88000011444,5.90000009537,12.5100002289
"2002-02-09 03:00:00",7.98999977112,0.293000012636,91.6999969482,10.8599996567,6.88000011444,6.09999990463,12.5
"2002-02-09 04:00:00",7.76999998093,0.293000012636,92.5999984741,11.0200004578,6.88999986649,5.09999990463,12.4799995422
"2002-02-09 05:00:00",7.48999977112,0.293999999762,93.3000030518,11.1800003052,6.90000009537,4.59999990463,12.4600000381
"2002-02-09 06:00:00",7.23999977112,0.293999999762,93.8000030518,11.3100004196,6.90000009537,4.19999980927,12.4399995804
"2002-02-09 07:00:00",7.0,0.293000012636,94.9000015259,11.5100002289,6.90999984741,5.40000009537,12.4300003052
"2002-02-09 08:00:00",6.80999994278,0.291000008583,96.1999969482,11.720000267,6.92000007629,3.90000009537,12.4099998474
"2002-02-09 09:00:00",6.75,0.289999991655,98.6999969482,12.0500001907,6.94000005722,3.5,12.6099996567
"2002-02-09 10:00:00",7.17000007629,0.287999987602,102.5,12.3800001144,6.94999980927,3.5,13.7100000381